Regional Weather Roundup
Issued by NWS

Home | Current Version | Previous Version | Graphics & Text | Print | Product List | Glossary On
Versions: 1 2 3 4 5 6 7 8 9 10 11 12 13 14 15 16 17 18 19 20 21 22 23 24 25 26 27 28 29 30 31 32 33 34 35 36 37 38 39 40 41 42 43 44 45 46 47 48 49 50
945
ASUS43 KBIS 012310
RWRND

NORTH DAKOTA REGIONAL WEATHER ROUNDUP
NATIONAL WEATHER SERVICE BISMARCK ND
600 PM CDT SUN MAY 01 2016

NOTE: "FAIR" INDICATES FEW OR NO CLOUDS BELOW 12,000 FEET WITH NO
SIGNIFICANT WEATHER AND/OR OBSTRUCTIONS TO VISIBILITY.


NDZ001>003-009>011-017-020000-
NORTHWEST NORTH DAKOTA

CITY           SKY/WX    TMP DP  RH WIND       PRES   REMARKS
WILLISTON      SUNNY     68  25  19 NW6       30.18F
MINOT          SUNNY     70  22  16 SW3       30.17F
MINOT AFB      SUNNY     65  26  22 NW7       30.16F
$$

NDZ018>021-031>035-040>046-020000-
SOUTHWEST NORTH DAKOTA

CITY           SKY/WX    TMP DP  RH WIND       PRES   REMARKS
BISMARCK       SUNNY     63  27  25 CALM      30.20F
DICKINSON      SUNNY     62  27  26 VRB3      30.18F
GARRISON         N/A     63  23  21 SW10      30.18F
HETTINGER ARPT SUNNY     60  26  27 N5        30.21F
$$

NDZ004>008-012>016-024-026-027-054-020000-
NORTHEAST NORTH DAKOTA

CITY           SKY/WX    TMP DP  RH WIND       PRES   REMARKS
GRAND FORKS    SUNNY     67  28  23 N9        30.15F
GRND FRKS AFB  SUNNY     65  25  22 VRB2      30.16F
DEVILS LAKE    SUNNY     63  24  22 N10       30.17F
$$

NDZ022-023-025-028>030-036>039-047>053-020000-
SOUTHEAST NORTH DAKOTA

CITY           SKY/WX    TMP DP  RH WIND       PRES   REMARKS
FARGO          SUNNY     67  27  22 N9        30.15S
JAMESTOWN      SUNNY     62  27  26 NW6       30.16F
$$





USA.gov is the U.S. government's official web portal to all federal, state and local government web resources and services.